Theta_e
309 311 311 313 314 316 327 340 343 343 343 342 340 340 340 340 339 338 337 337 340 339 339 338 338 336 334 332 331 332 329 328
308 310 312 315 315 315 319 338 343 343 342 341 340 340 341 341 341 341 341 341 339 338 339 339 338 336 335 333 331 331 328 328
306 313 315 316 317 318 319 335 342 343 342 341 340 339 340 341 340 341 341 341 341 340 339 337 337 334 333 331 330 328 327 327
307 316 320 322 324 325 331 339 342 344 343 340 340 339 339 338 339 340 339 340 340 340 339 338 336 334 332 331 331 330 327 326
307 318 322 326 328 329 330 331 332 333 332 332 333 337 338 338 338 337 338 339 338 337 339 338 336 334 330 332 332 330 328 326
307 317 323 325 326 326 326 328 330 332 333 333 331 329 332 337 337 337 336 335 338 337 336 337 335 334 332 331 330 329 328 328
310 318 322 321 323 324 326 326 328 327 327 326 326 327 329 333 332 333 334 333 334 334 333 334 335 333 332 331 331 330 328 328
310 319 321 318 319 322 325 326 324 327 327 326 326 325 325 327 330 332 332 334 333 332 331 332 334 333 333 332 330 329 328 328
310 321 320 317 318 319 319 318 318 318 320 321 323 324 324 325 326 328 330 331 332 332 331 331 332 332 333 332 330 329 329 329
316 319 318 318 318 317 316 315 315 314 313 313 314 315 316 319 322 325 328 327 327 330 331 330 330 332 332 331 330 330 330 329
314 316 317 317 316 315 314 313 312 311 310 311 311 312 313 316 320 323 325 326 327 329 331 331 330 329 330 331 330 330 329 328
315 316 315 314 313 311 310 309 308 307 308 308 308 309 310 311 311 315 320 324 325 326 328 331 330 330 330 330 330 329 329 328
313 314 312 310 307 306 304 303 303 304 305 305 306 306 306 307 308 308 311 316 322 325 326 330 330 330 329 329 329 328 327 327
308 307 306 304 302 301 301 300 300 302 302 302 302 302 303 303 303 305 306 309 315 322 325 326 328 329 329 329 329 328 327 326
305 304 303 301 299 298 297 297 298 299 299 299 299 298 298 299 300 302 303 305 308 317 321 325 326 327 327 328 327 326 326 326
302 302 300 298 296 295 294 294 295 295 297 298 296 295 296 297 297 298 301 303 305 309 315 324 326 326 325 326 326 326 324 323
299 299 297 295 293 292 292 291 291 292 294 293 292 292 293 294 295 296 298 300 301 304 311 315 326 325 325 326 325 324 322 321
295 295 294 292 291 290 290 289 289 290 290 289 289 290 291 292 293 294 296 297 298 298 303 310 320 325 325 325 325 323 322 320
292 291 291 289 288 287 287 288 287 287 287 286 287 287 289 290 292 293 294 295 296 298 301 306 313 324 324 324 322 322 321 321
Wind_Speed
16 17 23 29 29 39 45 45 46 41 34 29 28 29 31 32 31 31 31 32 32 34 32 33 33 34 32 29 31 30 28 28
13 20 23 23 27 36 38 35 35 34 31 27 25 29 33 30 32 30 30 32 32 33 35 35 36 38 38 34 28 30 23 25
8 14 6 5 16 29 38 37 36 34 30 28 17 26 28 30 31 31 31 32 35 36 36 37 38 35 35 33 31 22 19 28
9 6 3 10 4 7 22 29 28 29 30 23 15 16 11 21 26 30 33 34 33 35 36 37 35 35 32 36 35 32 22 27
9 5 5 20 16 19 23 25 24 21 18 16 14 13 12 17 22 27 30 34 35 36 35 36 34 36 30 35 39 38 32 22
11 10 16 24 27 24 20 20 21 20 18 16 9 4 10 17 15 21 26 32 38 39 36 36 34 33 35 36 35 33 35 30
10 6 16 11 31 28 23 24 23 21 19 18 17 9 3 6 11 16 24 27 29 34 34 34 36 35 36 38 38 39 36 32
10 9 9 15 17 27 31 28 21 22 20 16 16 11 4 3 8 12 15 18 24 29 29 30 33 35 34 36 36 37 37 34
10 15 12 15 18 22 26 31 25 17 20 18 15 6 4 4 5 8 13 16 20 20 23 29 30 28 32 37 37 36 38 37
6 8 13 15 14 18 24 25 28 24 20 18 15 10 6 7 7 7 9 10 15 19 23 23 28 30 31 35 35 35 33 35
16 8 11 15 21 21 24 33 29 21 17 14 12 11 12 10 9 9 9 11 12 16 18 25 27 28 33 34 33 32 33 32
11 9 22 24 23 26 26 32 26 18 15 14 14 14 11 10 10 9 10 11 13 14 19 25 28 30 31 34 31 30 33 31
11 12 25 24 25 28 27 30 21 22 22 18 18 16 16 15 16 17 14 12 13 15 14 24 27 31 33 33 32 31 32 31
15 15 14 18 21 18 19 23 25 25 22 23 22 21 19 19 20 19 19 18 15 15 16 19 28 31 33 33 33 32 33 32
15 13 13 17 17 20 21 23 24 22 24 23 21 22 23 22 22 21 20 19 18 16 17 20 27 31 34 33 32 31 32 32
15 15 12 19 23 22 24 21 19 21 19 17 19 24 25 24 24 24 24 20 20 18 18 22 25 31 35 35 34 32 31 29
18 17 16 19 21 21 20 20 22 20 15 18 22 23 21 23 26 27 25 23 22 22 20 20 25 30 36 37 36 32 30 28
15 14 14 18 19 22 22 23 23 19 17 19 19 21 21 22 23 23 22 23 24 24 23 22 25 30 36 36 37 34 31 31
13 14 15 15 18 21 23 21 20 18 18 21 23 23 22 22 22 22 24 24 25 25 26 25 25 29 31 33 39 34 27 25
Wind_Direction
284 300 304 300 286 242 222 214 217 213 205 202 203 209 213 222 223 222 223 220 214 217 218 222 219 218 216 213 215 212 215 210
282 304 305 303 275 229 216 205 204 198 191 186 191 199 211 215 221 224 225 223 222 222 223 224 222 216 212 209 202 204 204 204
296 294 296 236 261 226 198 200 198 194 188 188 193 200 214 218 224 223 223 225 226 223 218 217 218 211 209 202 194 188 193 196
281 277 155 114 115 144 165 179 183 194 197 190 193 187 199 211 221 226 223 227 229 227 225 221 218 212 203 199 199 192 185 191
271 202 141 127 127 120 125 135 143 154 163 175 190 202 204 223 227 234 234 231 233 235 230 226 221 215 208 203 204 201 192 192
254 210 165 154 141 134 130 126 121 119 125 126 122 203 243 241 238 240 239 238 235 236 237 231 220 210 210 209 202 199 199 193
264 210 145 163 140 133 123 126 120 115 110 114 106 89 25 287 263 248 246 245 240 235 234 229 223 214 212 213 213 206 204 200
248 162 166 157 138 125 122 113 118 123 116 100 102 92 88 295 274 256 243 246 249 237 233 229 217 217 214 216 210 207 204 204
216 185 168 147 134 120 123 125 103 87 89 91 72 53 359 310 296 281 269 262 266 265 245 239 231 222 212 211 205 205 205 214
355 139 137 119 110 98 99 81 82 75 69 63 71 52 14 314 305 300 280 290 280 270 260 248 239 233 223 212 204 207 210 217
7 25 43 77 83 83 80 78 68 52 46 51 55 44 28 4 339 329 313 297 297 273 269 250 237 234 227 218 210 211 212 214
352 60 65 57 53 58 56 55 50 35 25 32 40 40 21 12 359 341 328 317 305 291 264 250 235 226 219 214 211 209 213 215
354 54 64 57 45 40 39 39 20 21 14 15 26 22 11 0 357 354 345 321 310 295 279 250 237 221 220 216 214 213 213 213
32 27 57 54 46 36 35 33 16 14 358 2 8 9 2 351 351 345 344 339 306 303 285 257 233 224 218 218 221 217 218 219
24 25 32 38 39 29 21 26 19 2 352 352 358 352 351 351 344 342 333 332 325 295 291 273 243 228 224 219 215 214 219 221
22 8 13 21 16 17 19 12 0 359 346 338 343 347 347 346 343 339 334 327 329 307 297 280 251 233 223 223 223 222 226 228
11 12 11 14 13 6 3 359 355 354 339 337 343 342 339 341 341 338 333 327 329 326 307 300 254 238 233 230 225 221 224 223
14 8 6 3 360 358 356 350 350 341 342 343 339 332 329 337 333 332 328 326 325 328 318 307 283 245 238 237 228 223 217 219
1 360 354 357 358 351 343 341 341 336 341 343 337 330 330 333 332 329 325 324 322 322 322 315 296 255 237 241 219 220 217 225